Temperature
28 28 27 28 28 28 28 28 27 28 28 27 26 26 25 25 25 24 23 22 21 20 19 19 19 18 18 17 17 17 17 16 16 16 16 15 15 15 15 15 15 15 15 15
28 27 28 29 29 28 28 27 27 28 28 27 26 25 25 24 25 24 23 22 21 20 19 18 18 18 17 17 17 16 16 16 16 16 15 15 15 15 15 15 15 15 15 15
28 28 29 29 28 28 27 27 27 26 27 27 26 25 24 24 24 23 22 22 21 20 19 18 18 17 17 17 16 16 16 16 16 15 15 15 15 15 15 15 15 15 14 14
28 29 29 28 28 27 27 28 27 27 26 26 26 23 23 23 22 22 22 21 20 20 19 18 18 17 17 16 16 16 16 16 15 15 15 15 15 15 14 14 14 14 14 14
28 28 28 27 27 27 27 27 27 27 26 25 25 24 23 23 21 21 21 21 20 19 19 18 17 17 17 16 16 16 16 16 15 15 15 15 14 14 14 14 14 14 14 14
28 28 28 27 27 27 27 27 27 26 26 24 24 24 22 22 21 21 21 20 20 19 19 18 17 17 16 16 16 16 15 15 15 15 14 14 14 14 14 14 14 14 14 14
26 27 28 27 26 26 26 25 24 24 24 24 25 24 21 22 22 21 21 20 20 19 18 18 17 17 16 16 16 15 15 15 15 14 14 14 14 14 14 14 14 14 14 14
25 25 27 27 26 25 25 25 23 22 23 24 24 23 21 22 21 21 20 20 19 19 18 18 17 17 16 16 15 15 15 14 14 14 14 14 14 14 13 13 13 14 14 14
24 25 27 27 27 26 25 25 25 24 24 23 23 22 21 22 21 21 20 20 19 18 18 18 17 16 16 15 15 15 15 14 14 14 14 14 14 14 13 13 13 13 13 13
25 24 26 27 27 26 26 26 25 24 22 22 22 22 20 20 21 21 20 20 19 18 18 17 17 16 16 15 15 15 14 14 14 14 14 14 14 13 13 13 13 13 13 13
25 23 25 26 25 25 25 25 25 24 24 22 21 21 22 21 21 20 20 19 19 18 18 17 16 16 15 15 15 15 14 14 14 14 14 14 13 13 13 13 13 13 13 13
24 23 23 25 26 26 25 25 24 23 23 23 22 21 22 21 21 20 20 19 19 18 17 17 16 16 16 15 15 15 14 14 14 14 14 13 13 13 13 13 13 13 13 13
23 22 22 23 24 25 24 25 25 24 23 22 21 20 22 21 20 20 19 19 18 18 17 17 16 16 15 15 15 15 14 14 14 14 14 13 13 13 13 13 13 13 13 13
22 22 22 22 23 24 24 24 24 24 23 22 21 20 21 21 20 20 19 19 18 17 17 16 16 15 15 15 14 14 14 14 14 14 14 14 13 13 13 13 13 13 13 13
22 22 23 24 24 25 24 24 24 23 23 22 21 21 20 20 20 20 19 18 18 17 17 16 16 15 15 14 14 14 14 14 14 14 14 14 13 13 13 13 13 13 13 13
22 22 23 23 24 24 23 23 23 23 22 22 21 20 20 20 20 19 19 18 17 17 17 16 15 15 14 14 14 14 14 14 14 14 14 14 13 13 13 13 13 13 13 13
23 22 22 22 24 23 22 22 23 22 22 22 20 20 21 20 20 19 18 18 17 17 16 16 15 14 14 14 14 14 14 14 14 14 14 14 13 13 13 13 13 13 13 12
22 21 21 22 22 21 22 23 23 22 22 22 21 21 20 20 19 18 18 17 17 16 16 15 14 14 14 14 14 14 14 14 14 14 14 14 14 13 13 13 13 13 13 12
23 22 22 22 22 22 22 23 23 22 21 21 21 21 20 20 19 18 18 17 17 16 15 15 14 14 14 14 14 14 14 14 14 14 14 14 14 14 13 13 13 13 13 13
23 22 22 22 21 21 21 23 23 22 20 21 21 20 20 20 19 18 17 17 16 16 15 14 14 14 14 14 14 14 14 14 14 14 14 14 14 13 13 13 13 13 13 13
22 22 22 21 21 21 22 23 23 20 19 20 20 20 19 19 18 18 17 16 16 15 15 14 14 14 14 14 14 14 14 14 14 14 14 14 14 13 13 13 13 13 13 13
22 22 21 21 21 20 22 22 21 19 19 19 20 19 18 18 18 17 17 16 16 15 15 14 14 14 14 14 14 13 13 14 14 14 14 14 13 13 13 13 13 13 13 13
22 22 21 21 21 21 21 20 20 20 20 19 19 19 18 18 17 17 17 16 15 15 15 14 14 14 14 14 14 14 14 14 14 14 13 13 13 13 13 13 13 13 13 13
22 22 22 21 22 21 21 20 20 20 20 19 19 19 18 17 17 17 16 16 15 15 15 14 14 14 14 14 14 14 14 14 13 13 13 13 14 14 14 14 13 13 13 13
21 21 21 21 21 21 21 20 20 20 20 19 19 18 18 17 17 17 16 16 15 15 15 14 14 14 14 14 14 14 14 14 13 13 13 13 14 14 14 14 14 14 14 13
21 21 20 20 20 20 20 20 20 20 20 19 19 18 18 17 17 16 16 15 15 15 15 14 14 14 14 14 14 14 14 14 13 13 13 13 14 14 14 14 14 14 14 14
Wind_Speed
10 9 8 8 8 9 10 9 8 6 3 3 3 3 4 4 5 4 4 5 5 6 7 5 5 6 6 5 5 4 3 2 2 1 1 0 0 1 1 0 2 2 1 1
8 8 8 8 8 9 10 9 7 4 4 4 3 4 5 3 4 5 5 6 6 6 5 4 4 5 5 5 4 4 3 2 2 1 1 1 0 0 0 0 1 2 2 1
8 4 5 7 7 8 9 8 6 7 7 6 4 3 5 5 5 6 5 6 6 5 4 3 4 4 4 4 4 3 2 1 1 1 1 1 1 0 0 1 1 1 1 1
8 6 5 7 6 7 6 6 7 9 9 7 6 3 4 6 6 5 4 4 5 4 4 3 3 3 4 4 3 3 2 1 1 1 0 1 0 0 1 1 1 1 1 2
5 4 5 6 6 6 7 8 10 10 9 8 5 3 3 5 5 4 3 4 5 4 4 3 3 4 4 3 3 3 3 2 1 1 0 0 1 1 0 1 2 2 2 2
5 3 3 5 7 5 7 9 10 8 7 7 5 4 2 3 3 3 4 4 4 5 5 4 3 4 3 2 2 3 3 1 1 1 0 0 1 1 1 1 1 2 1 1
5 4 2 4 6 5 6 6 4 4 5 3 2 2 2 3 4 4 4 5 5 5 4 4 4 4 3 2 2 3 2 1 1 1 0 1 1 1 1 1 1 1 1 1
6 4 2 4 4 5 6 4 3 4 4 4 2 2 4 5 5 6 5 5 5 6 5 5 4 4 3 2 2 2 2 1 1 1 1 0 0 1 0 1 1 1 1 0
6 6 2 2 3 4 6 5 6 5 6 4 1 4 3 5 6 5 4 4 6 5 5 5 5 4 3 2 2 1 1 1 1 2 2 1 1 1 1 0 1 1 0 0
7 8 5 1 2 2 5 6 4 4 3 3 1 3 2 2 4 4 5 5 5 4 5 5 4 4 3 3 3 2 1 1 1 1 1 1 1 1 1 1 0 1 1 0
6 5 6 2 2 3 5 5 5 5 4 3 2 1 4 4 4 4 4 4 4 4 5 5 5 4 3 3 2 1 1 1 1 1 1 0 1 1 1 1 1 1 1 1
5 4 6 3 2 2 3 4 4 4 4 3 2 1 4 6 5 4 4 4 5 4 5 4 4 4 4 3 3 2 2 1 0 1 1 1 1 1 1 1 1 1 1 1
6 4 4 2 1 1 3 5 5 4 4 4 3 1 4 6 4 4 5 5 5 4 5 5 4 4 5 5 4 4 3 2 1 1 1 1 1 1 0 1 1 1 1 1
3 4 4 3 3 3 4 5 5 4 3 3 2 1 3 3 3 4 4 4 4 3 4 4 4 4 4 4 4 4 3 2 2 1 1 1 1 1 1 1 2 1 1 1
4 5 5 4 3 3 3 5 6 5 4 3 2 2 2 2 3 3 3 3 4 4 4 4 4 4 4 4 4 4 3 3 2 1 1 1 2 2 2 2 1 1 0 1
3 5 6 5 3 3 4 5 5 5 4 3 3 3 3 2 3 3 3 3 3 3 4 4 4 4 4 4 3 3 3 2 2 1 1 2 2 2 2 2 2 1 1 1
5 5 6 5 5 5 3 3 3 4 3 2 2 2 3 3 2 2 3 2 2 3 3 4 4 4 3 3 3 3 2 1 1 1 1 1 2 2 2 1 2 2 1 1
4 5 5 6 4 3 2 2 3 4 4 4 3 2 1 2 2 3 3 3 3 3 3 4 3 3 2 2 2 2 1 0 0 1 1 1 2 2 2 2 2 1 1 1
2 3 5 5 4 2 1 3 3 3 2 4 2 1 0 2 3 4 3 3 3 3 3 3 2 1 2 1 1 2 2 1 1 1 1 1 1 2 2 2 2 1 0 1
2 3 4 5 6 3 2 3 2 2 0 3 2 1 2 2 1 2 2 2 3 4 3 2 2 2 2 2 1 1 2 2 2 2 2 2 2 2 2 2 1 0 1 1
4 4 5 6 6 2 4 4 2 2 2 4 3 3 3 3 2 2 2 3 3 3 3 2 2 2 2 1 1 1 1 1 2 2 3 3 2 1 2 1 0 0 1 1
4 4 4 5 5 2 4 3 3 2 2 2 3 4 4 3 3 3 3 4 4 3 3 2 2 2 2 2 1 1 2 1 2 2 3 2 2 1 2 1 0 1 1 1
3 3 3 3 1 1 3 3 2 1 0 1 2 2 3 3 2 3 4 4 3 3 3 2 2 2 2 2 1 1 1 1 2 2 2 2 1 1 1 0 0 0 1 1
3 2 2 3 1 1 1 1 1 1 1 1 2 2 2 2 2 2 3 3 3 3 2 2 1 2 2 1 1 1 1 1 1 2 1 1 0 0 0 1 1 1 2 2
7 4 4 3 3 3 2 1 1 1 0 1 2 3 3 3 2 2 3 3 3 2 2 1 1 0 1 1 1 1 1 1 1 1 1 1 1 0 0 1 1 1 1 1
6 5 5 4 4 3 3 2 1 1 1 2 3 3 3 2 2 2 2 2 2 2 1 0 0 1 1 1 1 1 1 1 1 1 1 2 2 1 1 1 1 1 1 2
Wind_Direction
242 243 259 276 271 273 279 276 266 259 243 225 211 180 156 177 157 136 129 116 114 101 89 77 77 91 94 96 99 103 105 112 123 120 144 224 92 33 7 85 134 147 168 181
250 246 261 274 273 268 277 283 281 277 259 239 216 205 152 154 137 125 108 104 96 100 99 95 90 95 100 102 108 112 106 113 126 119 126 163 168 181 181 359 100 129 144 172
277 288 291 282 280 279 277 281 294 289 273 243 216 210 133 124 94 78 78 86 98 102 99 95 82 86 100 107 108 108 115 128 124 142 157 189 173 263 219 132 109 129 139 148
285 308 312 305 308 303 301 308 296 276 263 258 234 227 145 131 108 83 58 73 89 88 78 67 90 94 92 101 110 110 111 116 132 152 165 218 173 227 262 151 155 166 174 180
290 314 314 314 321 313 295 298 287 274 264 264 239 249 167 131 98 79 68 72 76 76 85 76 79 85 80 87 110 113 105 93 84 93 130 319 322 281 289 140 164 185 176 184
288 303 321 330 316 301 298 299 281 266 262 249 222 221 171 146 117 104 76 62 58 57 63 70 72 86 80 71 82 100 107 95 74 93 117 225 266 278 274 227 201 205 180 168
278 264 298 334 328 318 308 309 299 278 249 249 215 183 103 90 105 100 83 72 53 57 55 55 57 57 63 75 81 94 105 110 131 138 212 263 276 255 263 269 255 245 216 184
305 287 325 344 320 306 300 299 292 288 279 289 303 101 99 96 88 87 73 70 59 44 40 43 47 49 44 61 73 89 113 140 159 155 176 195 325 296 274 253 294 287 285 5
317 304 296 347 310 309 309 306 284 283 280 277 149 110 111 90 93 79 69 63 61 42 38 37 38 37 33 37 61 73 114 147 168 173 165 165 168 230 278 297 239 287 356 324
311 308 299 286 262 247 298 307 305 306 305 311 248 148 133 85 75 73 62 50 53 46 45 40 42 41 32 31 60 78 112 142 155 168 213 183 176 198 193 187 116 61 28 331
326 304 298 284 355 349 324 326 324 312 309 307 298 89 99 106 91 76 65 45 48 45 47 44 39 33 32 34 40 69 92 112 106 162 173 131 170 209 187 187 201 176 188 234
338 306 292 289 33 4 322 327 320 321 326 315 326 87 81 99 88 76 76 58 53 49 51 48 40 27 26 30 30 35 49 61 94 112 125 130 162 191 234 237 211 191 189 219
339 311 292 259 264 353 320 321 319 322 314 325 328 75 87 88 84 74 69 60 54 46 47 44 38 26 26 29 26 30 26 27 31 49 80 91 124 143 167 205 143 144 152 160
307 305 303 304 320 322 316 324 330 327 316 350 19 55 103 93 88 77 70 60 56 61 52 38 35 26 27 29 24 20 19 28 43 47 79 97 131 153 130 111 107 133 156 161
323 298 304 307 309 317 330 338 356 8 350 347 21 30 42 66 78 88 80 66 60 54 40 28 29 34 29 26 24 18 15 24 36 27 81 112 129 133 124 110 116 110 164 189
311 294 295 288 301 336 345 354 4 14 21 53 54 39 34 66 93 86 78 68 57 36 28 23 25 31 26 16 15 12 8 20 26 31 75 118 121 119 115 117 122 109 72 43
309 307 296 285 299 300 311 3 11 27 44 48 31 33 53 43 74 75 86 80 60 36 28 23 23 25 27 15 12 355 344 20 43 63 75 99 115 116 121 116 110 101 73 39
297 309 292 283 287 290 74 54 41 24 29 42 58 33 358 59 89 111 100 84 61 40 34 35 37 18 8 18 23 338 331 25 103 148 133 102 110 114 115 114 95 76 65 17
234 278 292 297 298 263 104 38 12 355 22 35 31 10 48 98 103 105 86 71 73 69 61 46 42 40 15 28 30 350 3 22 25 45 64 63 80 94 102 90 85 85 50 299
224 248 266 288 300 306 54 21 349 288 204 16 11 36 72 112 63 86 66 77 85 86 80 58 51 60 49 37 43 23 19 24 27 32 43 47 63 74 75 73 56 58 270 269
251 242 256 277 284 308 33 7 332 299 10 358 18 58 61 56 46 109 108 99 104 99 97 92 76 72 64 62 56 34 45 24 20 37 47 50 45 74 103 86 1 298 298 318
292 280 278 275 277 300 17 11 25 44 45 359 50 79 75 75 80 98 100 104 106 97 92 96 94 88 83 93 81 68 56 30 39 41 39 37 32 18 72 77 1 292 294 320
300 319 311 329 326 64 27 41 81 123 352 27 94 102 107 98 92 89 86 90 92 89 79 86 101 115 112 110 87 56 40 28 38 34 29 22 35 51 58 129 166 287 283 297
300 330 290 285 302 356 6 12 2 26 345 99 133 132 132 122 108 90 92 90 82 77 86 85 99 101 105 127 128 91 78 50 35 13 4 328 275 153 100 7 350 3 350 335
314 309 287 260 280 301 315 317 298 308 243 140 124 127 135 134 119 96 92 90 75 71 70 86 98 146 156 164 168 157 142 104 3 310 299 291 284 307 92 106 355 16 41 49
294 291 289 288 318 297 304 312 281 223 219 166 149 138 129 128 124 98 95 99 85 73 65 62 241 220 186 164 164 173 188 191 248 283 299 291 278 232 230 180 155 28 159 155
Height
1467 1468 1468 1464 1461 1462 1460 1462 1464 1461 1457 1462 1467 1470 1472 1474 1475 1479 1482 1484 1487 1489 1491 1492 1493 1493 1493 1493 1494 1495 1496 1497 1498 1499 1499 1499 1499 1500 1500 1501 1501 1502 1503 1503
1465 1466 1461 1458 1458 1459 1460 1464 1463 1460 1459 1461 1468 1469 1469 1474 1476 1479 1482 1484 1487 1489 1490 1492 1493 1494 1494 1494 1494 1495 1496 1497 1497 1498 1499 1499 1499 1499 1500 1500 1500 1500 1501 1502
1465 1461 1458 1458 1458 1462 1462 1463 1464 1466 1461 1459 1466 1474 1474 1475 1477 1480 1483 1485 1488 1491 1492 1493 1493 1494 1494 1494 1495 1495 1496 1496 1497 1497 1498 1498 1499 1499 1499 1499 1499 1499 1500 1501
1461 1458 1459 1460 1461 1461 1466 1459 1460 1462 1465 1468 1468 1484 1480 1478 1480 1483 1486 1487 1490 1491 1492 1493 1493 1494 1494 1494 1495 1495 1496 1496 1496 1497 1497 1497 1497 1497 1497 1498 1497 1498 1499 1499
1463 1461 1462 1465 1463 1462 1464 1459 1459 1460 1464 1469 1469 1479 1485 1479 1485 1486 1487 1488 1490 1492 1493 1493 1494 1494 1494 1495 1495 1495 1495 1495 1495 1496 1496 1496 1496 1496 1496 1496 1496 1497 1497 1498
1462 1461 1463 1465 1462 1462 1461 1461 1459 1460 1464 1479 1473 1480 1490 1482 1485 1487 1488 1490 1491 1492 1493 1494 1494 1494 1494 1495 1495 1494 1494 1494 1495 1495 1495 1495 1494 1494 1495 1495 1495 1496 1496 1496
1469 1464 1462 1464 1466 1465 1465 1472 1482 1483 1482 1479 1467 1476 1489 1481 1482 1486 1489 1490 1491 1492 1493 1494 1494 1495 1495 1494 1494 1494 1494 1493 1494 1494 1493 1493 1493 1493 1494 1494 1494 1494 1495 1495
1479 1476 1465 1464 1467 1471 1468 1472 1490 1498 1491 1481 1471 1482 1488 1482 1485 1487 1490 1491 1492 1493 1494 1494 1494 1495 1495 1494 1494 1494 1493 1493 1493 1493 1492 1492 1492 1492 1492 1492 1493 1493 1493 1494
1483 1478 1464 1464 1465 1467 1471 1471 1469 1477 1479 1483 1482 1486 1488 1485 1486 1488 1490 1492 1493 1495 1495 1495 1495 1495 1495 1494 1494 1493 1493 1492 1492 1492 1491 1491 1491 1491 1491 1491 1491 1492 1492 1493
1478 1483 1468 1465 1465 1465 1466 1466 1469 1478 1489 1495 1489 1488 1493 1489 1489 1489 1491 1493 1494 1495 1495 1496 1496 1495 1495 1495 1494 1493 1492 1491 1491 1490 1490 1490 1490 1490 1490 1490 1490 1490 1491 1491
1477 1485 1476 1468 1470 1473 1471 1471 1472 1473 1474 1491 1498 1497 1483 1487 1488 1490 1492 1494 1494 1495 1496 1496 1496 1496 1495 1494 1493 1492 1491 1490 1490 1489 1489 1489 1488 1488 1488 1489 1489 1489 1490 1491
1480 1483 1483 1474 1469 1467 1469 1472 1473 1485 1485 1481 1491 1499 1482 1486 1488 1490 1491 1493 1495 1495 1496 1496 1496 1495 1494 1494 1492 1492 1491 1490 1490 1489 1488 1487 1487 1487 1487 1487 1488 1489 1489 1490
1485 1488 1491 1486 1481 1475 1474 1472 1471 1474 1480 1485 1495 1500 1485 1487 1490 1491 1492 1494 1495 1496 1496 1496 1496 1495 1494 1493 1492 1492 1491 1490 1489 1488 1488 1487 1486 1486 1486 1486 1487 1488 1489 1490
1488 1489 1491 1496 1488 1479 1479 1474 1472 1476 1484 1489 1493 1493 1489 1489 1490 1492 1493 1494 1496 1496 1496 1496 1496 1495 1494 1493 1493 1492 1491 1490 1489 1488 1488 1487 1487 1487 1487 1487 1488 1488 1489 1489
1488 1490 1484 1480 1476 1475 1477 1477 1476 1478 1481 1488 1490 1490 1491 1490 1491 1493 1494 1495 1496 1496 1496 1496 1495 1495 1494 1493 1492 1492 1491 1490 1490 1489 1488 1488 1488 1488 1488 1488 1489 1489 1489 1490
1488 1490 1485 1483 1476 1475 1479 1479 1478 1481 1481 1484 1488 1492 1489 1490 1491 1493 1494 1495 1496 1496 1496 1496 1495 1494 1494 1493 1492 1492 1491 1491 1490 1490 1489 1489 1489 1489 1489 1489 1489 1489 1489 1490
1487 1488 1489 1487 1478 1479 1487 1484 1482 1482 1482 1486 1491 1492 1490 1491 1491 1493 1494 1495 1496 1497 1497 1496 1495 1494 1493 1493 1493 1492 1492 1491 1491 1491 1491 1491 1491 1490 1490 1490 1490 1490 1490 1489
1489 1491 1489 1486 1487 1498 1490 1480 1481 1483 1484 1485 1488 1489 1491 1491 1493 1494 1495 1496 1497 1497 1497 1496 1495 1494 1494 1493 1493 1492 1492 1492 1492 1492 1492 1492 1492 1491 1491 1491 1491 1490 1490 1490
1486 1489 1490 1489 1491 1489 1485 1481 1483 1486 1489 1488 1488 1490 1491 1491 1492 1494 1496 1497 1497 1497 1497 1497 1496 1495 1494 1493 1493 1493 1493 1493 1493 1493 1493 1493 1493 1492 1492 1492 1491 1491 1490 1490
1483 1485 1490 1489 1495 1498 1490 1482 1483 1486 1492 1489 1490 1490 1490 1491 1493 1496 1497 1497 1498 1498 1497 1497 1496 1495 1494 1494 1494 1494 1494 1494 1494 1494 1494 1493 1493 1493 1492 1492 1492 1491 1491 1491
1487 1487 1490 1491 1493 1490 1485 1483 1483 1495 1498 1491 1490 1491 1491 1492 1495 1497 1496 1497 1498 1498 1498 1497 1496 1496 1495 1495 1495 1495 1495 1495 1495 1495 1494 1494 1494 1493 1493 1493 1492 1492 1492 1491
1486 1488 1489 1490 1495 1497 1487 1485 1490 1494 1492 1491 1491 1492 1493 1494 1495 1496 1496 1497 1498 1498 1498 1497 1497 1497 1496 1496 1496 1496 1496 1496 1496 1495 1495 1494 1494 1494 1494 1493 1493 1493 1492 1491
1485 1487 1488 1491 1494 1491 1489 1490 1491 1492 1492 1492 1492 1493 1494 1495 1496 1496 1497 1498 1498 1498 1498 1498 1498 1498 1497 1497 1497 1497 1497 1496 1496 1496 1495 1495 1494 1494 1494 1494 1493 1493 1492 1492
1484 1485 1486 1488 1487 1489 1489 1491 1491 1491 1492 1492 1493 1494 1494 1495 1496 1497 1497 1498 1498 1498 1498 1498 1498 1498 1498 1498 1498 1497 1497 1497 1497 1496 1496 1495 1495 1495 1495 1494 1494 1493 1493 1492
1488 1487 1487 1488 1488 1489 1489 1491 1491 1491 1492 1492 1493 1494 1494 1495 1496 1497 1498 1498 1498 1498 1498 1498 1498 1499 1499 1499 1498 1498 1498 1497 1497 1497 1496 1496 1495 1495 1495 1494 1494 1493 1493 1492
1488 1488 1489 1490 1489 1490 1490 1490 1491 1491 1491 1492 1493 1494 1495 1496 1496 1497 1498 1498 1498 1498 1498 1498 1498 1498 1499 1499 1498 1498 1498 1498 1498 1497 1497 1496 1496 1496 1495 1494 1494 1493 1492 1491